Time,TemperatureF,DewpointF,PressureIn,WindDirection,WindDirectionDegrees,WindSpeedMPH,WindSpeedGustMPH,Humidity,HourlyPrecipIn,Conditions,Clouds,dailyrainin,SolarRadiationWatts/m^2,SoftwareType,DateUTC
2013-04-03 00:03:00,30.2,16.4,30.30,NW,309,1.0,1.0,56,0.00,,,0.00,0,Wunderground v.1.15,2013-04-03 04:03:00,
2013-04-03 00:13:00,29.9,16.1,30.30,NW,306,1.0,1.0,56,0.00,,,0.00,0,Wunderground v.1.15,2013-04-03 04:13:00,
2013-04-03 00:18:00,29.9,16.1,30.30,NW,321,2.0,2.0,56,0.00,,,0.00,0,Wunderground v.1.15,2013-04-03 04:18:00,
2013-04-03 00:23:00,29.9,16.1,30.30,NW,323,2.0,2.0,56,0.00,,,0.00,0,Wunderground v.1.15,2013-04-03 04:23:00,
2013-04-03 00:33:00,29.7,15.9,30.30,NNW,332,1.0,1.0,56,0.00,,,0.00,0,Wunderground v.1.15,2013-04-03 04:33:00,
2013-04-03 00:43:00,29.4,16.0,30.30,NNW,332,0.0,11.0,57,0.00,,,0.00,0,Wunderground v.1.15,2013-04-03 04:43:00,
2013-04-03 00:48:00,29.2,15.8,30.30,NNW,332,0.0,11.0,57,0.00,,,0.00,0,Wunderground v.1.15,2013-04-03 04:48:00,
2013-04-03 00:53:00,29.1,15.7,30.30,NNW,332,0.0,0.0,57,0.00,,,0.00,0,Wunderground v.1.15,2013-04-03 04:53:00,
2013-04-03 01:03:00,28.8,15.9,30.30,NNW,332,0.0,0.0,58,0.00,,,0.00,0,Wunderground v.1.15,2013-04-03 05:03:00,
2013-04-03 01:13:00,28.6,15.7,30.30,NNW,332,0.0,0.0,58,0.00,,,0.00,0,Wunderground v.1.15,2013-04-03 05:13:00,
2013-04-03 01:18:00,28.5,16.0,30.30,NNW,332,0.0,0.0,59,0.00,,,0.00,0,Wunderground v.1.15,2013-04-03 05:18:00,
2013-04-03 01:28:00,28.2,15.7,30.31,NNW,332,0.0,6.0,59,0.00,,,0.00,0,Wunderground v.1.15,2013-04-03 05:28:00,
2013-04-03 01:33:00,28.0,15.5,30.31,NNW,332,0.0,6.0,59,0.00,,,0.00,0,Wunderground v.1.15,2013-04-03 05:33:00,
2013-04-03 01:38:00,27.9,15.8,30.31,NNW,332,0.0,6.0,60,0.00,,,0.00,0,Wunderground v.1.15,2013-04-03 05:38:00,
2013-04-03 01:43:00,27.8,15.7,30.31,NNW,332,0.0,6.0,60,0.00,,,0.00,0,Wunderground v.1.15,2013-04-03 05:43:00,
2013-04-03 01:53:00,27.2,15.5,30.31,NNW,332,0.0,0.0,61,0.00,,,0.00,0,Wunderground v.1.15,2013-04-03 05:53:00,
2013-04-03 02:03:00,26.4,15.5,30.31,NNW,332,0.0,0.0,63,0.00,,,0.00,0,Wunderground v.1.15,2013-04-03 06:03:00,
2013-04-03 02:08:00,26.1,15.6,30.31,NNW,332,0.0,0.0,64,0.00,,,0.00,0,Wunderground v.1.15,2013-04-03 06:08:00,
2013-04-03 02:13:00,26.1,15.6,30.31,NNW,332,0.0,0.0,64,0.00,,,0.00,0,Wunderground v.1.15,2013-04-03 06:13:00,
2013-04-03 02:18:00,26.3,16.1,30.31,NNW,332,0.0,0.0,65,0.00,,,0.00,0,Wunderground v.1.15,2013-04-03 06:18:00,
2013-04-03 02:23:00,26.2,16.0,30.31,NNW,332,0.0,0.0,65,0.00,,,0.00,0,Wunderground v.1.15,2013-04-03 06:23:00,
2013-04-03 02:28:00,25.8,15.6,30.31,NNW,332,0.0,0.0,65,0.00,,,0.00,0,Wunderground v.1.15,2013-04-03 06:28:00,
2013-04-03 02:38:00,25.1,17.3,30.31,NNW,332,0.0,0.0,72,0.00,,,0.00,0,Wunderground v.1.15,2013-04-03 06:38:00,
2013-04-03 02:43:00,24.7,15.3,30.31,NNW,332,0.0,0.0,67,0.00,,,0.00,0,Wunderground v.1.15,2013-04-03 06:43:00,
2013-04-03 02:58:00,24.9,16.8,30.31,NNW,332,0.0,0.0,71,0.00,,,0.00,0,Wunderground v.1.15,2013-04-03 06:58:00,
2013-04-03 03:03:00,24.6,16.5,30.31,NNW,332,0.0,0.0,71,0.00,,,0.00,0,Wunderground v.1.15,2013-04-03 07:03:00,
2013-04-03 03:08:00,24.4,16.7,30.31,NNW,332,0.0,0.0,72,0.00,,,0.00,0,Wunderground v.1.15,2013-04-03 07:08:00,
2013-04-03 03:18:00,24.5,16.8,30.31,NNW,332,0.0,0.0,72,0.00,,,0.00,0,Wunderground v.1.15,2013-04-03 07:18:00,
2013-04-03 03:23:00,24.1,16.1,30.31,NNW,332,0.0,0.0,71,0.00,,,0.00,0,Wunderground v.1.15,2013-04-03 07:23:00,
2013-04-03 03:28:00,23.8,16.1,30.31,NNW,332,0.0,0.0,72,0.00,,,0.00,0,Wunderground v.1.15,2013-04-03 07:28:00,
2013-04-03 03:33:00,23.5,16.1,30.31,NNW,332,0.0,0.0,73,0.00,,,0.00,0,Wunderground v.1.15,2013-04-03 07:33:00,
2013-04-03 03:43:00,23.1,16.4,30.31,NNW,332,0.0,0.0,75,0.00,,,0.00,0,Wunderground v.1.15,2013-04-03 07:43:00,
2013-04-03 03:48:00,23.3,16.9,30.32,NNW,332,0.0,0.0,76,0.00,,,0.00,0,Wunderground v.1.15,2013-04-03 07:48:00,
2013-04-03 03:53:00,23.5,17.0,30.32,NNW,332,0.0,0.0,76,0.00,,,0.00,0,Wunderground v.1.15,2013-04-03 07:53:00,
2013-04-03 04:03:00,23.9,17.1,30.32,NNW,332,0.0,0.0,75,0.00,,,0.00,0,Wunderground v.1.15,2013-04-03 08:03:00,
2013-04-03 04:13:00,23.1,16.4,30.32,NNW,332,0.0,0.0,75,0.00,,,0.00,0,Wunderground v.1.15,2013-04-03 08:13:00,
2013-04-03 04:18:00,22.8,16.4,30.32,NNW,332,0.0,0.0,76,0.00,,,0.00,0,Wunderground v.1.15,2013-04-03 08:18:00,
2013-04-03 04:23:00,22.8,16.7,30.32,NNW,332,0.0,0.0,77,0.00,,,0.00,0,Wunderground v.1.15,2013-04-03 08:23:00,
2013-04-03 04:28:00,22.8,16.7,30.31,NNW,332,0.0,0.0,77,0.00,,,0.00,0,Wunderground v.1.15,2013-04-03 08:28:00,
2013-04-03 04:38:00,22.7,16.6,30.32,NNW,332,0.0,0.0,77,0.00,,,0.00,0,Wunderground v.1.15,2013-04-03 08:38:00,
2013-04-03 04:43:00,22.6,16.5,30.32,NNW,332,0.0,0.0,77,0.00,,,0.00,0,Wunderground v.1.15,2013-04-03 08:43:00,
2013-04-03 04:53:00,22.4,16.6,30.32,NNW,332,0.0,0.0,78,0.00,,,0.00,0,Wunderground v.1.15,2013-04-03 08:53:00,
2013-04-03 05:03:00,22.4,16.9,30.33,NNW,332,0.0,0.0,79,0.00,,,0.00,0,Wunderground v.1.15,2013-04-03 09:03:00,
2013-04-03 05:08:00,22.7,17.5,30.33,NNW,332,0.0,0.0,80,0.00,,,0.00,0,Wunderground v.1.15,2013-04-03 09:08:00,
2013-04-03 05:13:00,23.1,17.8,30.33,NNW,332,0.0,0.0,80,0.00,,,0.00,0,Wunderground v.1.15,2013-04-03 09:13:00,
2013-04-03 05:18:00,23.8,18.2,30.33,NNW,332,0.0,0.0,79,0.00,,,0.00,0,Wunderground v.1.15,2013-04-03 09:18:00,
2013-04-03 05:23:00,24.6,18.7,30.33,NNW,332,0.0,2.0,78,0.00,,,0.00,0,Wunderground v.1.15,2013-04-03 09:23:00,
2013-04-03 05:33:00,25.9,18.4,30.33,West,281,1.0,1.0,73,0.00,,,0.00,0,Wunderground v.1.15,2013-04-03 09:33:00,
2013-04-03 05:43:00,26.5,18.7,30.33,West,281,0.0,0.0,72,0.00,,,0.00,0,Wunderground v.1.15,2013-04-03 09:43:00,
2013-04-03 05:48:00,26.7,18.9,30.34,West,281,0.0,1.0,72,0.00,,,0.00,0,Wunderground v.1.15,2013-04-03 09:48:00,
2013-04-03 05:53:00,26.9,18.7,30.34,West,281,0.0,0.0,71,0.00,,,0.00,0,Wunderground v.1.15,2013-04-03 09:53:00,
2013-04-03 06:03:00,26.8,18.3,30.34,West,279,1.0,2.0,70,0.00,,,0.00,0,Wunderground v.1.15,2013-04-03 10:03:00,
2013-04-03 06:08:00,26.7,18.2,30.34,West,274,1.0,2.0,70,0.00,,,0.00,0,Wunderground v.1.15,2013-04-03 10:08:00,
2013-04-03 06:18:00,26.6,18.1,30.35,West,277,1.0,2.0,70,0.00,,,0.00,0,Wunderground v.1.15,2013-04-03 10:18:00,
2013-04-03 06:23:00,26.4,18.3,30.35,West,277,1.0,1.0,71,0.00,,,0.00,0,Wunderground v.1.15,2013-04-03 10:23:00,
2013-04-03 06:28:00,26.3,18.2,30.36,West,277,0.0,4.0,71,0.00,,,0.00,0,Wunderground v.1.15,2013-04-03 10:28:00,
2013-04-03 06:33:00,26.1,18.0,30.36,West,277,0.0,4.0,71,0.00,,,0.00,0,Wunderground v.1.15,2013-04-03 10:33:00,
2013-04-03 06:38:00,26.0,17.9,30.36,West,277,0.0,4.0,71,0.00,,,0.00,0,Wunderground v.1.15,2013-04-03 10:38:00,
2013-04-03 06:48:00,25.4,17.6,30.36,West,277,0.0,4.0,72,0.00,,,0.00,0,Wunderground v.1.15,2013-04-03 10:48:00,
2013-04-03 06:53:00,25.1,17.3,30.36,West,277,0.0,0.0,72,0.00,,,0.00,0,Wunderground v.1.15,2013-04-03 10:53:00,
2013-04-03 07:03:00,24.7,17.3,30.36,West,277,0.0,0.0,73,0.00,,,0.00,0,Wunderground v.1.15,2013-04-03 11:03:00,
2013-04-03 07:08:00,24.3,16.9,30.37,West,277,0.0,0.0,73,0.00,,,0.00,0,Wunderground v.1.15,2013-04-03 11:08:00,
2013-04-03 07:18:00,24.3,17.8,30.37,West,277,0.0,0.0,76,0.00,,,0.00,9,Wunderground v.1.15,2013-04-03 11:18:00,
2013-04-03 07:23:00,24.5,18.0,30.37,West,277,0.0,0.0,76,0.00,,,0.00,12,Wunderground v.1.15,2013-04-03 11:23:00,
2013-04-03 07:33:00,24.6,17.5,30.37,West,277,0.0,5.0,74,0.00,,,0.00,21,Wunderground v.1.15,2013-04-03 11:33:00,
2013-04-03 07:38:00,24.3,17.5,30.38,West,277,0.0,5.0,75,0.00,,,0.00,25,Wunderground v.1.15,2013-04-03 11:38:00,
2013-04-03 07:48:00,24.6,18.1,30.38,WNW,285,0.0,5.0,76,0.00,,,0.00,33,Wunderground v.1.15,2013-04-03 11:48:00,
2013-04-03 07:53:00,24.7,18.2,30.38,WNW,285,0.0,0.0,76,0.00,,,0.00,63,Wunderground v.1.15,2013-04-03 11:53:00,
2013-04-03 08:03:00,25.9,18.7,30.39,NW,318,1.0,1.0,74,0.00,,,0.00,95,Wunderground v.1.15,2013-04-03 12:03:00,
2013-04-03 08:08:00,26.5,19.3,30.39,NW,318,0.0,1.0,74,0.00,,,0.00,113,Wunderground v.1.15,2013-04-03 12:08:00,
2013-04-03 08:18:00,27.2,18.7,30.40,NNW,329,2.0,3.0,70,0.00,,,0.00,148,Wunderground v.1.15,2013-04-03 12:18:00,
2013-04-03 08:23:00,27.6,18.8,30.39,North,355,2.0,2.0,69,0.00,,,0.00,167,Wunderground v.1.15,2013-04-03 12:23:00,
2013-04-03 08:28:00,27.8,18.3,30.40,NW,322,2.0,3.0,67,0.00,,,0.00,186,Wunderground v.1.15,2013-04-03 12:28:00,
2013-04-03 08:33:00,28.0,18.5,30.40,North,360,3.0,3.0,67,0.00,,,0.00,206,Wunderground v.1.15,2013-04-03 12:33:00,
2013-04-03 08:38:00,28.2,17.9,30.40,North,349,3.0,3.0,65,0.00,,,0.00,225,Wunderground v.1.15,2013-04-03 12:38:00,
2013-04-03 08:43:00,28.3,17.7,30.40,North,355,4.0,4.0,64,0.00,,,0.00,243,Wunderground v.1.15,2013-04-03 12:43:00,
2013-04-03 08:53:00,28.6,16.8,30.40,NNE,13,6.0,6.0,61,0.00,,,0.00,276,Wunderground v.1.15,2013-04-03 12:53:00,
2013-04-03 09:03:00,28.8,16.6,30.41,North,5,6.0,6.0,60,0.00,,,0.00,308,Wunderground v.1.15,2013-04-03 13:03:00,
2013-04-03 09:13:00,29.4,17.2,30.41,NNW,344,5.0,5.0,60,0.00,,,0.00,345,Wunderground v.1.15,2013-04-03 13:13:00,
2013-04-03 09:18:00,29.7,17.1,30.41,NW,326,4.0,6.0,59,0.00,,,0.00,360,Wunderground v.1.15,2013-04-03 13:18:00,
2013-04-03 09:23:00,30.0,17.4,30.41,NNW,348,4.0,5.0,59,0.00,,,0.00,376,Wunderground v.1.15,2013-04-03 13:23:00,
2013-04-03 09:28:00,30.5,17.5,30.42,North,5,4.0,6.0,58,0.00,,,0.00,392,Wunderground v.1.15,2013-04-03 13:28:00,
2013-04-03 09:33:00,30.7,16.8,30.42,North,355,4.0,6.0,56,0.00,,,0.00,410,Wunderground v.1.15,2013-04-03 13:33:00,
2013-04-03 09:38:00,30.9,16.6,30.42,NNW,340,5.0,6.0,55,0.00,,,0.00,425,Wunderground v.1.15,2013-04-03 13:38:00,
2013-04-03 09:43:00,30.7,16.0,30.42,NW,319,9.0,9.0,54,0.00,,,0.00,439,Wunderground v.1.15,2013-04-03 13:43:00,
2013-04-03 09:53:00,31.2,16.5,30.42,NNW,333,8.0,11.0,54,0.00,,,0.00,475,Wunderground v.1.15,2013-04-03 13:53:00,
2013-04-03 10:03:00,31.5,16.3,30.43,NNE,15,8.0,8.0,53,0.00,,,0.00,499,Wunderground v.1.15,2013-04-03 14:03:00,
2013-04-03 10:13:00,31.9,16.2,30.43,NW,320,9.0,9.0,52,0.00,,,0.00,531,Wunderground v.1.15,2013-04-03 14:13:00,
2013-04-03 10:23:00,31.9,15.8,30.43,NW,314,10.0,10.0,51,0.00,,,0.00,554,Wunderground v.1.15,2013-04-03 14:23:00,
2013-04-03 10:33:00,32.6,16.0,30.44,NW,320,9.0,10.0,50,0.00,,,0.00,585,Wunderground v.1.15,2013-04-03 14:33:00,
2013-04-03 10:38:00,32.8,16.2,30.44,NNW,338,9.0,12.0,50,0.00,,,0.00,598,Wunderground v.1.15,2013-04-03 14:38:00,
2013-04-03 10:48:00,33.2,16.5,30.45,NW,312,9.0,11.0,50,0.00,,,0.00,622,Wunderground v.1.15,2013-04-03 14:48:00,
2013-04-03 10:53:00,33.3,16.6,30.45,NW,307,8.0,11.0,50,0.00,,,0.00,638,Wunderground v.1.15,2013-04-03 14:53:00,
2013-04-03 11:03:00,34.0,16.8,30.45,NNW,344,8.0,8.0,49,0.00,,,0.00,666,Wunderground v.1.15,2013-04-03 15:03:00,
2013-04-03 11:08:00,33.7,15.6,30.46,NNW,336,8.0,8.0,47,0.00,,,0.00,686,Wunderground v.1.15,2013-04-03 15:08:00,
2013-04-03 11:13:00,33.4,16.7,30.45,NNW,343,9.0,11.0,50,0.00,,,0.00,707,Wunderground v.1.15,2013-04-03 15:13:00,
2013-04-03 11:18:00,34.2,17.0,30.45,North,5,9.0,11.0,49,0.00,,,0.00,717,Wunderground v.1.15,2013-04-03 15:18:00,
2013-04-03 11:23:00,34.4,16.2,30.45,NW,307,9.0,9.0,47,0.00,,,0.00,728,Wunderground v.1.15,2013-04-03 15:23:00,
2013-04-03 11:33:00,34.1,15.9,30.46,NW,325,10.0,10.0,47,0.00,,,0.00,768,Wunderground v.1.15,2013-04-03 15:33:00,
2013-04-03 11:43:00,34.6,16.9,30.45,North,360,8.0,8.0,48,0.00,,,0.00,802,Wunderground v.1.15,2013-04-03 15:43:00,
2013-04-03 11:48:00,34.6,15.4,30.46,North,5,8.0,10.0,45,0.00,,,0.00,802,Wunderground v.1.15,2013-04-03 15:48:00,
2013-04-03 11:53:00,34.5,16.8,30.45,North,5,8.0,8.0,48,0.00,,,0.00,842,Wunderground v.1.15,2013-04-03 15:53:00,
2013-04-03 12:03:00,34.7,16.0,30.46,North,355,9.0,9.0,46,0.00,,,0.00,795,Wunderground v.1.15,2013-04-03 16:03:00,
2013-04-03 12:09:00,35.1,16.4,30.46,NNW,338,8.0,9.0,46,0.00,,,0.00,842,Wunderground v.1.15,2013-04-03 16:09:00,
2013-04-03 12:18:00,34.9,15.7,30.47,North,355,8.0,8.0,45,0.00,,,0.00,248,Wunderground v.1.15,2013-04-03 16:18:00,
2013-04-03 12:23:00,35.0,16.3,30.47,West,259,8.0,8.0,46,0.00,,,0.00,851,Wunderground v.1.15,2013-04-03 16:23:00,
2013-04-03 12:28:00,35.9,16.1,30.47,NNE,19,8.0,10.0,44,0.00,,,0.00,868,Wunderground v.1.15,2013-04-03 16:28:00,
2013-04-03 12:38:00,35.6,16.3,30.47,NW,309,10.0,12.0,45,0.00,,,0.00,858,Wunderground v.1.15,2013-04-03 16:38:00,
2013-04-03 12:43:00,36.1,16.8,30.47,NNE,20,9.0,20.0,45,0.00,,,0.00,835,Wunderground v.1.15,2013-04-03 16:43:00,
2013-04-03 12:48:00,36.0,16.2,30.47,NW,315,9.0,20.0,44,0.00,,,0.00,835,Wunderground v.1.15,2013-04-03 16:48:00,
2013-04-03 12:53:00,35.6,15.8,30.47,NNW,335,11.0,11.0,44,0.00,,,0.00,833,Wunderground v.1.15,2013-04-03 16:53:00,
2013-04-03 13:03:00,36.1,15.7,30.46,North,360,8.0,8.0,43,0.00,,,0.00,835,Wunderground v.1.15,2013-04-03 17:03:00,
2013-04-03 13:13:00,36.7,15.2,30.46,NNW,346,9.0,10.0,41,0.00,,,0.00,842,Wunderground v.1.15,2013-04-03 17:13:00,
2013-04-03 13:23:00,36.6,16.7,30.45,NW,321,9.0,9.0,44,0.00,,,0.00,842,Wunderground v.1.15,2013-04-03 17:23:00,
2013-04-03 13:33:00,37.1,17.2,30.44,NNW,340,8.0,8.0,44,0.00,,,0.00,838,Wunderground v.1.15,2013-04-03 17:33:00,
2013-04-03 13:43:00,37.0,15.5,30.44,North,355,8.0,19.0,41,0.00,,,0.00,844,Wunderground v.1.15,2013-04-03 17:43:00,
2013-04-03 13:48:00,37.2,16.2,30.43,North,355,9.0,19.0,42,0.00,,,0.00,835,Wunderground v.1.15,2013-04-03 17:48:00,
2013-04-03 13:53:00,37.6,16.0,30.43,North,360,9.0,9.0,41,0.00,,,0.00,840,Wunderground v.1.15,2013-04-03 17:53:00,
2013-04-03 14:03:00,37.3,15.2,30.43,North,360,9.0,9.0,40,0.00,,,0.00,833,Wunderground v.1.15,2013-04-03 18:03:00,
2013-04-03 14:13:00,38.0,15.8,30.44,NW,326,8.0,11.0,40,0.00,,,0.00,828,Wunderground v.1.15,2013-04-03 18:13:00,
2013-04-03 14:18:00,37.8,15.0,30.43,NNW,332,8.0,11.0,39,0.00,,,0.00,826,Wunderground v.1.15,2013-04-03 18:18:00,
2013-04-03 14:28:00,38.4,15.0,30.43,North,5,7.0,16.0,38,0.00,,,0.00,817,Wunderground v.1.15,2013-04-03 18:28:00,
2013-04-03 14:33:00,38.6,17.5,30.43,North,10,7.0,16.0,42,0.00,,,0.00,814,Wunderground v.1.15,2013-04-03 18:33:00,
2013-04-03 14:43:00,38.3,16.6,30.43,North,350,7.0,7.0,41,0.00,,,0.00,802,Wunderground v.1.15,2013-04-03 18:43:00,
2013-04-03 14:48:00,39.1,16.2,30.43,North,5,5.0,16.0,39,0.00,,,0.00,800,Wunderground v.1.15,2013-04-03 18:48:00,
2013-04-03 14:54:00,39.1,15.0,30.43,NNE,13,6.0,6.0,37,0.00,,,0.00,791,Wunderground v.1.15,2013-04-03 18:54:00,
2013-04-03 15:03:00,39.3,15.8,30.43,North,5,6.0,7.0,38,0.00,,,0.00,779,Wunderground v.1.15,2013-04-03 19:03:00,
2013-04-03 15:08:00,39.4,14.6,30.43,NNW,327,6.0,7.0,36,0.00,,,0.00,772,Wunderground v.1.15,2013-04-03 19:08:00,
2013-04-03 15:13:00,39.5,15.3,30.43,NW,310,7.0,7.0,37,0.00,,,0.00,765,Wunderground v.1.15,2013-04-03 19:13:00,
2013-04-03 15:23:00,40.0,15.8,30.43,North,360,5.0,12.0,37,0.00,,,0.00,747,Wunderground v.1.15,2013-04-03 19:23:00,
2013-04-03 15:28:00,39.8,15.0,30.43,North,351,6.0,16.0,36,0.00,,,0.00,738,Wunderground v.1.15,2013-04-03 19:28:00,
2013-04-03 15:33:00,39.8,15.6,30.44,NNW,340,6.0,6.0,37,0.00,,,0.00,729,Wunderground v.1.15,2013-04-03 19:33:00,
2013-04-03 15:43:00,39.7,14.9,30.44,NNW,329,5.0,5.0,36,0.00,,,0.00,708,Wunderground v.1.15,2013-04-03 19:43:00,
2013-04-03 15:53:00,40.1,15.2,30.43,ENE,58,5.0,6.0,36,0.00,,,0.00,691,Wunderground v.1.15,2013-04-03 19:53:00,
2013-04-03 16:03:00,40.6,15.7,30.43,NE,34,5.0,5.0,36,0.00,,,0.00,666,Wunderground v.1.15,2013-04-03 20:03:00,
2013-04-03 16:13:00,40.8,16.5,30.42,North,5,3.0,3.0,37,0.00,,,0.00,645,Wunderground v.1.15,2013-04-03 20:13:00,
2013-04-03 16:18:00,41.1,16.1,30.42,ENE,57,4.0,4.0,36,0.00,,,0.00,636,Wunderground v.1.15,2013-04-03 20:18:00,
2013-04-03 16:23:00,41.2,14.9,30.43,WNW,287,5.0,6.0,34,0.00,,,0.00,624,Wunderground v.1.15,2013-04-03 20:23:00,
2013-04-03 16:28:00,40.9,16.0,30.42,WNW,292,5.0,13.0,36,0.00,,,0.00,617,Wunderground v.1.15,2013-04-03 20:28:00,
2013-04-03 16:38:00,41.0,14.7,30.43,WNW,300,4.0,13.0,34,0.00,,,0.00,596,Wunderground v.1.15,2013-04-03 20:38:00,
2013-04-03 16:48:00,41.5,14.5,30.43,NW,310,2.0,13.0,33,0.00,,,0.00,564,Wunderground v.1.15,2013-04-03 20:48:00,
2013-04-03 16:53:00,41.5,15.8,30.43,WNW,302,3.0,4.0,35,0.00,,,0.00,552,Wunderground v.1.15,2013-04-03 20:53:00,
2013-04-03 16:59:00,41.6,15.3,30.43,WNW,282,4.0,4.0,34,0.00,,,0.00,536,Wunderground v.1.15,2013-04-03 20:59:00,
2013-04-03 17:08:00,41.7,15.4,30.43,WNW,300,4.0,5.0,34,0.00,,,0.00,510,Wunderground v.1.15,2013-04-03 21:08:00,
2013-04-03 17:18:00,41.1,14.8,30.42,NNE,18,5.0,5.0,34,0.00,,,0.00,462,Wunderground v.1.15,2013-04-03 21:18:00,
2013-04-03 17:28:00,41.9,16.2,30.42,NNW,339,3.0,12.0,35,0.00,,,0.00,434,Wunderground v.1.15,2013-04-03 21:28:00,
2013-04-03 17:33:00,42.2,15.1,30.42,West,272,3.0,12.0,33,0.00,,,0.00,415,Wunderground v.1.15,2013-04-03 21:33:00,
2013-04-03 17:43:00,41.5,13.8,30.43,NW,311,5.0,5.0,32,0.00,,,0.00,396,Wunderground v.1.15,2013-04-03 21:43:00,
2013-04-03 17:49:00,41.6,13.9,30.43,NNW,348,3.0,12.0,32,0.00,,,0.00,274,Wunderground v.1.15,2013-04-03 21:49:00,
2013-04-03 17:54:00,41.5,13.1,30.43,NNW,344,3.0,3.0,31,0.00,,,0.00,283,Wunderground v.1.15,2013-04-03 21:54:00,
2013-04-03 18:03:00,41.7,14.0,30.43,West,273,1.0,4.0,32,0.00,,,0.00,306,Wunderground v.1.15,2013-04-03 22:03:00,
2013-04-03 18:13:00,41.7,13.2,30.43,WNW,296,2.0,2.0,31,0.00,,,0.00,292,Wunderground v.1.15,2013-04-03 22:13:00,
2013-04-03 18:23:00,41.9,13.4,30.43,West,266,2.0,2.0,31,0.00,,,0.00,236,Wunderground v.1.15,2013-04-03 22:23:00,
2013-04-03 18:28:00,41.8,14.8,30.43,NNW,348,3.0,3.0,33,0.00,,,0.00,229,Wunderground v.1.15,2013-04-03 22:28:00,
2013-04-03 18:38:00,41.7,14.0,30.43,NW,321,1.0,11.0,32,0.00,,,0.00,193,Wunderground v.1.15,2013-04-03 22:38:00,
2013-04-03 18:43:00,41.7,14.7,30.43,North,350,1.0,1.0,33,0.00,,,0.00,178,Wunderground v.1.15,2013-04-03 22:43:00,
2013-04-03 18:53:00,41.6,14.6,30.43,North,355,1.0,1.0,33,0.00,,,0.00,141,Wunderground v.1.15,2013-04-03 22:53:00,
2013-04-03 19:03:00,41.3,13.6,30.43,North,5,2.0,2.0,32,0.00,,,0.00,100,Wunderground v.1.15,2013-04-03 23:03:00,
2013-04-03 19:08:00,41.2,13.5,30.43,NNE,33,2.0,2.0,32,0.00,,,0.00,83,Wunderground v.1.15,2013-04-03 23:08:00,
2013-04-03 19:18:00,40.9,14.0,30.43,NNE,33,0.0,2.0,33,0.00,,,0.00,62,Wunderground v.1.15,2013-04-03 23:18:00,
2013-04-03 19:28:00,40.7,13.1,30.43,NNE,33,1.0,8.0,32,0.00,,,0.00,35,Wunderground v.1.15,2013-04-03 23:28:00,
2013-04-03 19:38:00,40.4,12.8,30.43,NNE,33,0.0,8.0,32,0.00,,,0.00,26,Wunderground v.1.15,2013-04-03 23:38:00,
2013-04-03 19:43:00,40.2,14.0,30.43,NNE,33,0.0,8.0,34,0.00,,,0.00,21,Wunderground v.1.15,2013-04-03 23:43:00,
2013-04-03 19:49:00,39.8,13.7,30.42,NNE,33,0.0,8.0,34,0.00,,,0.00,16,Wunderground v.1.15,2013-04-03 23:49:00,
2013-04-03 19:58:00,39.2,12.5,30.42,NNE,33,0.0,0.0,33,0.00,,,0.00,5,Wunderground v.1.15,2013-04-03 23:58:00,
2013-04-03 20:03:00,38.9,13.5,30.41,NNE,33,0.0,0.0,35,0.00,,,0.00,0,Wunderground v.1.15,2013-04-04 00:03:00,
2013-04-03 20:13:00,38.0,13.4,30.41,NNE,33,0.0,0.0,36,0.00,,,0.00,0,Wunderground v.1.15,2013-04-04 00:13:00,
2013-04-03 20:19:00,37.9,13.3,30.42,NNE,33,0.0,0.0,36,0.00,,,0.00,0,Wunderground v.1.15,2013-04-04 00:19:00,
2013-04-03 20:28:00,37.4,13.5,30.41,NNE,33,0.0,6.0,37,0.00,,,0.00,0,Wunderground v.1.15,2013-04-04 00:28:00,
2013-04-03 20:38:00,36.5,13.9,30.41,NNE,33,0.0,6.0,39,0.00,,,0.00,0,Wunderground v.1.15,2013-04-04 00:38:00,
2013-04-03 20:48:00,36.0,14.5,30.41,NNE,33,0.0,6.0,41,0.00,,,0.00,0,Wunderground v.1.15,2013-04-04 00:48:00,
2013-04-03 20:53:00,35.2,14.9,30.41,NNE,33,0.0,0.0,43,0.00,,,0.00,0,Wunderground v.1.15,2013-04-04 00:53:00,
2013-04-03 21:03:00,33.7,14.1,30.41,NNE,33,0.0,0.0,44,0.00,,,0.00,0,Wunderground v.1.15,2013-04-04 01:03:00,
2013-04-03 21:08:00,33.6,14.0,30.41,NNE,33,0.0,0.0,44,0.00,,,0.00,0,Wunderground v.1.15,2013-04-04 01:08:00,
2013-04-03 21:13:00,33.4,14.3,30.41,NNE,33,0.0,0.0,45,0.00,,,0.00,0,Wunderground v.1.15,2013-04-04 01:13:00,
2013-04-03 21:18:00,33.1,15.5,30.41,NNE,33,0.0,0.0,48,0.00,,,0.00,0,Wunderground v.1.15,2013-04-04 01:18:00,
2013-04-03 21:28:00,31.9,18.0,30.42,NNE,33,0.0,1.0,56,0.00,,,0.00,0,Wunderground v.1.15,2013-04-04 01:28:00,
2013-04-03 21:33:00,31.7,16.9,30.42,NNE,33,0.0,1.0,54,0.00,,,0.00,0,Wunderground v.1.15,2013-04-04 01:33:00,
2013-04-03 21:38:00,32.3,18.3,30.42,NE,34,1.0,1.0,56,0.00,,,0.00,0,Wunderground v.1.15,2013-04-04 01:38:00,
2013-04-03 21:48:00,32.2,18.2,30.42,NE,36,0.0,1.0,56,0.00,,,0.00,0,Wunderground v.1.15,2013-04-04 01:48:00,
2013-04-03 21:58:00,32.9,18.1,30.43,South,180,1.0,3.0,54,0.00,,,0.00,0,Wunderground v.1.15,2013-04-04 01:58:00,
2013-04-03 22:03:00,33.6,18.3,30.43,SSE,167,2.0,4.0,53,0.00,,,0.00,0,Wunderground v.1.15,2013-04-04 02:03:00,
2013-04-03 22:08:00,33.8,18.5,30.43,South,170,2.0,2.0,53,0.00,,,0.00,0,Wunderground v.1.15,2013-04-04 02:08:00,
2013-04-03 22:13:00,34.0,17.7,30.43,SSE,164,2.0,4.0,51,0.00,,,0.00,0,Wunderground v.1.15,2013-04-04 02:13:00,
2013-04-03 22:18:00,34.2,17.9,30.42,South,171,3.0,3.0,51,0.00,,,0.00,0,Wunderground v.1.15,2013-04-04 02:18:00,
2013-04-03 22:23:00,33.7,17.5,30.42,South,170,3.0,5.0,51,0.00,,,0.00,0,Wunderground v.1.15,2013-04-04 02:23:00,
2013-04-03 22:28:00,34.0,17.3,30.42,South,170,4.0,4.0,50,0.00,,,0.00,0,Wunderground v.1.15,2013-04-04 02:28:00,
2013-04-03 22:33:00,34.1,17.4,30.42,SSE,159,4.0,4.0,50,0.00,,,0.00,0,Wunderground v.1.15,2013-04-04 02:33:00,
2013-04-03 22:38:00,33.7,19.2,30.42,SSE,159,2.0,2.0,55,0.00,,,0.00,0,Wunderground v.1.15,2013-04-04 02:38:00,
2013-04-03 22:43:00,33.1,17.4,30.42,SSE,160,1.0,2.0,52,0.00,,,0.00,0,Wunderground v.1.15,2013-04-04 02:43:00,
2013-04-03 22:53:00,32.4,19.3,30.42,SSE,160,0.0,0.0,58,0.00,,,0.00,0,Wunderground v.1.15,2013-04-04 02:53:00,
2013-04-03 23:03:00,31.6,19.3,30.42,SSE,160,0.0,0.0,60,0.00,,,0.00,0,Wunderground v.1.15,2013-04-04 03:03:00,
2013-04-03 23:13:00,31.2,18.5,30.41,SSE,160,0.0,0.0,59,0.00,,,0.00,0,Wunderground v.1.15,2013-04-04 03:13:00,
2013-04-03 23:18:00,31.1,18.8,30.41,SSE,160,0.0,0.0,60,0.00,,,0.00,0,Wunderground v.1.15,2013-04-04 03:18:00,
2013-04-03 23:28:00,31.1,19.2,30.41,SSE,160,0.0,8.0,61,0.00,,,0.00,0,Wunderground v.1.15,2013-04-04 03:28:00,
2013-04-03 23:38:00,30.8,19.7,30.41,SSE,160,0.0,8.0,63,0.00,,,0.00,0,Wunderground v.1.15,2013-04-04 03:38:00,
2013-04-03 23:48:00,30.5,19.8,30.41,SSE,160,0.0,8.0,64,0.00,,,0.00,0,Wunderground v.1.15,2013-04-04 03:48:00,
2013-04-03 23:54:00,30.6,20.2,30.41,SSE,160,0.0,0.0,65,0.00,,,0.00,0,Wunderground v.1.15,2013-04-04 03:54:00,